Time,TemperatureF,DewpointF,PressureIn,WindDirection,WindDirectionDegrees,WindSpeedMPH,WindSpeedGustMPH,Humidity,HourlyPrecipIn,Conditions,Clouds,dailyrainin,SoftwareType,DateUTC
2013-08-15 00:02:00,58.0,55.0,-100.00,SSW,205,2.0,2.0,88,0.00,,,-99.99,,2013-08-15 05:02:00,
2013-08-15 00:12:00,58.0,55.0,-100.00,SSW,205,2.0,2.0,88,0.00,,,-99.99,,2013-08-15 05:12:00,
2013-08-15 00:52:00,55.0,52.0,-100.00,NE,40,2.0,4.0,91,0.00,,,-99.99,,2013-08-15 05:52:00,
2013-08-15 01:02:00,55.0,52.0,-100.00,NE,40,2.0,4.0,91,0.00,,,-99.99,,2013-08-15 06:02:00,
2013-08-15 01:11:00,55.0,52.0,-100.00,NE,40,2.0,4.0,91,0.00,,,-99.99,,2013-08-15 06:11:00,
2013-08-15 01:52:00,56.0,53.0,-100.00,SSW,210,2.0,3.0,91,0.00,,,-99.99,,2013-08-15 06:52:00,
2013-08-15 02:02:00,56.0,53.0,-100.00,SSW,210,2.0,3.0,91,0.00,,,-99.99,,2013-08-15 07:02:00,
2013-08-15 02:11:00,56.0,53.0,-100.00,SSW,210,2.0,3.0,91,0.00,,,-99.99,,2013-08-15 07:11:00,
2013-08-15 02:52:00,56.0,54.0,-100.00,WSW,245,1.0,1.0,91,0.00,,,-99.99,,2013-08-15 07:52:00,
2013-08-15 03:02:00,56.0,54.0,-100.00,WSW,245,1.0,1.0,91,0.00,,,-99.99,,2013-08-15 08:02:00,
2013-08-15 03:11:00,56.0,54.0,-100.00,WSW,245,1.0,1.0,91,0.00,,,-99.99,,2013-08-15 08:11:00,
2013-08-15 03:52:00,57.0,54.0,-100.00,SSW,210,0.0,4.0,89,0.00,,,-99.99,,2013-08-15 08:52:00,
2013-08-15 04:01:00,57.0,54.0,-100.00,SSW,210,0.0,4.0,89,0.00,,,-99.99,,2013-08-15 09:01:00,
2013-08-15 04:11:00,57.0,54.0,-100.00,SSW,210,0.0,4.0,89,0.00,,,-99.99,,2013-08-15 09:11:00,
2013-08-15 04:53:00,58.0,55.0,-100.00,WNW,300,0.0,2.0,90,0.00,,,-99.99,,2013-08-15 09:53:00,
2013-08-15 05:03:00,58.0,55.0,-100.00,WNW,300,0.0,2.0,90,0.00,,,-99.99,,2013-08-15 10:03:00,
2013-08-15 05:12:00,58.0,55.0,-100.00,WNW,300,0.0,2.0,90,0.00,,,-99.99,,2013-08-15 10:12:00,
2013-08-15 05:52:00,56.0,53.0,-100.00,SSE,160,1.0,3.0,90,0.00,,,-99.99,,2013-08-15 10:52:00,
2013-08-15 06:02:00,56.0,53.0,-100.00,SSE,160,1.0,3.0,90,0.00,,,-99.99,,2013-08-15 11:02:00,
2013-08-15 06:11:00,56.0,53.0,-100.00,SSE,160,1.0,3.0,90,0.00,,,-99.99,,2013-08-15 11:11:00,
2013-08-15 06:52:00,58.0,54.0,-100.00,WSW,245,2.0,6.0,90,0.00,,,-99.99,,2013-08-15 11:52:00,
2013-08-15 07:01:00,58.0,54.0,-100.00,WSW,245,2.0,6.0,90,0.00,,,-99.99,,2013-08-15 12:01:00,
2013-08-15 07:11:00,58.0,54.0,-100.00,WSW,245,2.0,6.0,90,0.00,,,-99.99,,2013-08-15 12:11:00,
2013-08-15 07:52:00,60.0,55.0,-100.00,SW,235,1.0,2.0,83,0.00,,,-99.99,,2013-08-15 12:52:00,
2013-08-15 08:01:00,60.0,55.0,-100.00,SW,235,1.0,2.0,83,0.00,,,-99.99,,2013-08-15 13:01:00,
2013-08-15 08:11:00,60.0,55.0,-100.00,SW,235,1.0,2.0,83,0.00,,,-99.99,,2013-08-15 13:11:00,
2013-08-15 08:52:00,63.0,56.0,-100.00,SSW,210,2.0,6.0,79,0.00,,,-99.99,,2013-08-15 13:52:00,
2013-08-15 09:02:00,63.0,56.0,-100.00,SSW,210,2.0,6.0,79,0.00,,,-99.99,,2013-08-15 14:02:00,
2013-08-15 09:12:00,63.0,56.0,-100.00,SSW,210,2.0,6.0,79,0.00,,,-99.99,,2013-08-15 14:12:00,
2013-08-15 09:56:00,67.0,56.0,-100.00,SW,215,3.0,5.0,69,0.00,,,-99.99,,2013-08-15 14:56:00,
2013-08-15 10:05:00,67.0,56.0,-100.00,SW,215,3.0,5.0,69,0.00,,,-99.99,,2013-08-15 15:05:00,
2013-08-15 10:14:00,67.0,56.0,-100.00,SW,215,3.0,5.0,69,0.00,,,-99.99,,2013-08-15 15:14:00,
2013-08-15 10:54:00,73.0,52.0,-100.00,WNW,295,7.0,11.0,47,0.00,,,-99.99,,2013-08-15 15:54:00,
2013-08-15 11:04:00,73.0,52.0,-100.00,WNW,295,7.0,11.0,47,0.00,,,-99.99,,2013-08-15 16:04:00,
2013-08-15 11:14:00,73.0,52.0,-100.00,WNW,295,7.0,11.0,47,0.00,,,-99.99,,2013-08-15 16:14:00,
2013-08-15 11:18:00,76.0,47.0,-100.00,WNW,290,10.0,14.0,36,0.00,,,-99.99,,2013-08-15 16:18:00,
2013-08-15 13:00:00,-999.0,-99.9,-100.00,NW,310,6.0,11.0,-999,-99.99,,,-99.99,,2013-08-15 18:00:00,
2013-08-15 13:10:00,75.0,46.0,-100.00,NW,310,6.0,11.0,36,0.00,,,-99.99,,2013-08-15 18:10:00,
2013-08-15 13:17:00,77.0,46.0,-100.00,NNW,335,5.0,11.0,34,0.00,,,-99.99,,2013-08-15 18:17:00,
2013-08-15 14:06:00,-999.0,-99.9,-100.00,NNW,335,5.0,11.0,-999,0.00,,,-99.99,,2013-08-15 19:06:00,
2013-08-15 14:16:00,79.0,47.0,-100.00,West,260,2.0,7.0,33,0.00,,,-99.99,,2013-08-15 19:16:00,
2013-08-15 15:12:00,79.0,47.0,-100.00,West,260,2.0,7.0,33,0.00,,,-99.99,,2013-08-15 20:12:00,
2013-08-15 15:17:00,79.0,44.0,-100.00,NW,320,7.0,16.0,29,0.00,,,-99.99,,2013-08-15 20:17:00,
2013-08-15 16:03:00,79.0,44.0,-100.00,NW,320,7.0,16.0,29,0.00,,,-99.99,,2013-08-15 21:03:00,
2013-08-15 16:16:00,81.0,44.0,-100.00,WNW,295,6.0,10.0,28,0.00,,,-99.99,,2013-08-15 21:16:00,
2013-08-15 16:57:00,81.0,44.0,-100.00,WNW,295,6.0,10.0,28,0.00,,,-99.99,,2013-08-15 21:57:00,
2013-08-15 17:09:00,81.0,44.0,-100.00,WNW,295,6.0,10.0,28,0.00,,,-99.99,,2013-08-15 22:09:00,
2013-08-15 17:58:00,76.0,47.0,-100.00,NW,320,3.0,6.0,36,0.00,,,-99.99,,2013-08-15 22:58:00,
2013-08-15 18:07:00,76.0,47.0,-100.00,NW,320,3.0,6.0,36,0.00,,,-99.99,,2013-08-15 23:07:00,
2013-08-15 18:16:00,76.0,47.0,-100.00,NW,320,3.0,6.0,36,0.00,,,-99.99,,2013-08-15 23:16:00,
2013-08-15 18:55:00,78.0,46.0,-100.00,NNW,330,6.0,7.0,32,0.00,,,-99.99,,2013-08-15 23:55:00,
2013-08-15 19:08:00,78.0,46.0,-100.00,NNW,330,6.0,7.0,32,0.00,,,-99.99,,2013-08-16 00:08:00,
2013-08-15 19:17:00,72.0,48.0,-100.00,NW,310,4.0,4.0,43,0.00,,,-99.99,,2013-08-16 00:17:00,
2013-08-15 19:52:00,72.0,48.0,-100.00,NW,310,4.0,4.0,43,0.00,,,-99.99,,2013-08-16 00:52:00,
2013-08-15 20:05:00,72.0,48.0,-100.00,NW,310,4.0,4.0,43,0.00,,,-99.99,,2013-08-16 01:05:00,
2013-08-15 20:54:00,66.0,54.0,-100.00,West,265,2.0,4.0,64,0.00,,,-99.99,,2013-08-16 01:54:00,
2013-08-15 21:02:00,66.0,54.0,-100.00,West,265,2.0,4.0,64,0.00,,,-99.99,,2013-08-16 02:02:00,
2013-08-15 21:12:00,66.0,54.0,-100.00,West,265,2.0,4.0,64,0.00,,,-99.99,,2013-08-16 02:12:00,
2013-08-15 21:52:00,65.0,53.0,-100.00,West,265,2.0,4.0,66,0.00,,,-99.99,,2013-08-16 02:52:00,
2013-08-15 22:03:00,65.0,53.0,-100.00,West,265,2.0,4.0,66,0.00,,,-99.99,,2013-08-16 03:03:00,
2013-08-15 22:11:00,65.0,53.0,-100.00,West,265,2.0,4.0,66,0.00,,,-99.99,,2013-08-16 03:11:00,
2013-08-15 22:53:00,64.0,52.0,-100.00,West,265,2.0,4.0,65,0.00,,,-99.99,,2013-08-16 03:53:00,
2013-08-15 23:03:00,64.0,52.0,-100.00,West,265,2.0,4.0,65,0.00,,,-99.99,,2013-08-16 04:03:00,
2013-08-15 23:13:00,64.0,52.0,-100.00,West,265,2.0,4.0,65,0.00,,,-99.99,,2013-08-16 04:13:00,
2013-08-15 23:54:00,63.0,52.0,-100.00,WSW,255,2.0,6.0,67,0.00,,,-99.99,,2013-08-16 04:54:00,